MSR703 HECA-LIMC

Flight info

Callsign MSR703
Flight time N/A
Altitude 40000
Route CVO L617 TANSA UL613 KOR UL53 IXONI DCT OLGAT DCT PES DCT TUFTE DCT LOMED DCT BEROK DCT MIVKI DCT GOLAS DCT MEBUR
Aircraft A333/H-SDE3GHIJ2J3J5M1RVWXY/LB2D1

Departure

Time 2026-05-04 10:00
Airport Cairo International Airport (HECA)

Arrival

Time N/A
Airport Milan Malpensa International Airport (LIMC)
Time Latitude Longitude Altitude Speed Heading
2026-05-04 09:01 30.11221 31.40296 378 ft 0 kts 197°
2026-05-04 09:42 30.11302 31.40314 378 ft 1 kts 185°
2026-05-04 09:43 30.11304 31.40314 378 ft 0 kts 185°
2026-05-04 09:49 30.11202 31.40454 378 ft 9 kts 140°
2026-05-04 09:49 30.11146 31.40508 378 ft 11 kts 140°
2026-05-04 09:49 30.11080 31.40572 378 ft 13 kts 140°
2026-05-04 09:51 30.11200 31.41064 378 ft 15 kts 50°
2026-05-04 09:51 30.11270 31.41158 378 ft 16 kts 49°
2026-05-04 09:51 30.11349 31.41264 378 ft 18 kts 49°
2026-05-04 09:51 30.11435 31.41380 378 ft 20 kts 49°
2026-05-04 09:52 30.11530 31.41507 378 ft 22 kts 49°
2026-05-04 09:52 30.11632 31.41644 378 ft 23 kts 49°
2026-05-04 09:52 30.11742 31.41791 378 ft 25 kts 49°
2026-05-04 09:52 30.11860 31.41946 378 ft 26 kts 49°
2026-05-04 09:53 30.11985 31.42109 378 ft 28 kts 48°
2026-05-04 09:53 30.12112 31.42284 378 ft 29 kts 51°
2026-05-04 09:53 30.12213 31.42443 378 ft 16 kts 83°
2026-05-04 09:53 30.12184 31.42500 378 ft 6 kts 143°
2026-05-04 09:54 30.12143 31.42536 378 ft 9 kts 143°
2026-05-04 09:54 30.12089 31.42582 378 ft 11 kts 143°
2026-05-04 09:54 30.12029 31.42643 378 ft 12 kts 135°
2026-05-04 09:54 30.11962 31.42713 378 ft 14 kts 139°
2026-05-04 09:55 30.11885 31.42789 378 ft 16 kts 139°
2026-05-04 09:55 30.11798 31.42875 378 ft 17 kts 139°
2026-05-04 09:55 30.11701 31.42970 378 ft 19 kts 140°
2026-05-04 09:55 30.11594 31.43074 378 ft 21 kts 139°
2026-05-04 09:56 30.11480 31.43188 378 ft 22 kts 139°
2026-05-04 09:56 30.11359 31.43310 378 ft 24 kts 139°
2026-05-04 09:56 30.11235 31.43438 378 ft 24 kts 130°
2026-05-04 09:56 30.11224 31.43617 378 ft 24 kts 57°
2026-05-04 09:57 30.11336 31.43758 378 ft 24 kts 51°
2026-05-04 09:57 30.11447 31.43913 378 ft 26 kts 49°
2026-05-04 09:57 30.11569 31.44071 378 ft 27 kts 45°
2026-05-04 09:57 30.11691 31.44239 378 ft 28 kts 44°
2026-05-04 09:58 30.11822 31.44406 378 ft 29 kts 50°
2026-05-04 09:58 30.11953 31.44586 378 ft 30 kts 53°
2026-05-04 09:58 30.12090 31.44771 378 ft 31 kts 50°
2026-05-04 10:00 30.11078 31.43702 412 ft 156 kts 231°
2026-05-04 10:00 30.10359 31.42761 1205 ft 159 kts 233°
2026-05-04 10:02 30.10665 31.33802 5422 ft 237 kts 317°
2026-05-04 10:04 30.19751 31.24393 10858 ft 285 kts 314°
2026-05-04 10:04 30.21272 31.22795 11197 ft 306 kts 314°
2026-05-04 10:04 30.22905 31.21085 11587 ft 325 kts 314°
2026-05-04 10:04 30.24602 31.19316 12246 ft 332 kts 314°
2026-05-04 10:05 30.26333 31.17520 13095 ft 335 kts 314°
2026-05-04 10:05 30.28066 31.15723 13972 ft 336 kts 313°
2026-05-04 10:05 30.29822 31.13899 14672 ft 340 kts 313°
2026-05-04 10:05 30.31593 31.12054 15342 ft 345 kts 313°
2026-05-04 10:06 30.33384 31.10186 16019 ft 349 kts 312°
2026-05-04 10:06 30.35193 31.08298 16706 ft 352 kts 312°
2026-05-04 10:06 30.37023 31.06385 17398 ft 356 kts 311°
2026-05-04 10:08 30.48321 30.94564 21133 ft 370 kts 311°
2026-05-04 10:08 30.50229 30.92564 21796 ft 371 kts 311°
2026-05-04 10:08 30.52146 30.90554 22407 ft 372 kts 311°
2026-05-04 10:08 30.54069 30.88535 22974 ft 374 kts 311°
2026-05-04 10:09 30.56003 30.86502 23509 ft 377 kts 311°
2026-05-04 10:09 30.57948 30.84456 23983 ft 379 kts 311°
2026-05-04 10:09 30.59912 30.82389 24403 ft 382 kts 311°
2026-05-04 10:09 30.61886 30.80311 24829 ft 385 kts 310°
2026-05-04 10:10 30.63881 30.78210 25252 ft 388 kts 310°
2026-05-04 10:10 30.65883 30.76100 25689 ft 390 kts 310°
2026-05-04 10:10 30.67898 30.73977 26120 ft 393 kts 310°
2026-05-04 10:10 30.69931 30.71834 26541 ft 395 kts 310°
2026-05-04 10:11 30.71976 30.69676 26966 ft 398 kts 310°
2026-05-04 10:11 30.74026 30.67511 27383 ft 400 kts 310°
2026-05-04 10:11 30.76098 30.65322 27798 ft 403 kts 310°
2026-05-04 10:11 30.78178 30.63123 28206 ft 405 kts 310°
2026-05-04 10:12 30.80267 30.60913 28607 ft 408 kts 310°
2026-05-04 10:12 30.82374 30.58683 29005 ft 410 kts 310°
2026-05-04 10:12 30.84488 30.56443 29466 ft 412 kts 310°
2026-05-04 10:12 30.86586 30.54222 29914 ft 413 kts 310°
2026-05-04 10:13 30.88746 30.51931 30263 ft 416 kts 310°
2026-05-04 10:13 30.90863 30.49684 30568 ft 419 kts 310°
2026-05-04 10:13 30.93040 30.47372 30913 ft 420 kts 310°
2026-05-04 10:13 30.95200 30.45080 31371 ft 419 kts 310°
2026-05-04 10:14 30.97326 30.42824 31828 ft 417 kts 309°
2026-05-04 10:14 30.99497 30.40518 32260 ft 417 kts 309°
2026-05-04 10:16 31.11326 30.22557 34920 ft 391 kts 285°
2026-05-04 10:16 31.12177 30.19583 35196 ft 391 kts 284°
2026-05-04 10:16 31.13008 30.16515 35498 ft 391 kts 284°
2026-05-04 10:16 31.13801 30.13527 35793 ft 391 kts 283°
2026-05-04 10:17 31.14606 30.10489 36105 ft 392 kts 284°
2026-05-04 10:17 31.15414 30.07453 36381 ft 392 kts 284°
2026-05-04 10:19 31.23611 29.87203 38293 ft 404 kts 300°
2026-05-04 10:19 31.25271 29.84553 38541 ft 404 kts 300°
2026-05-04 10:19 31.26943 29.81906 38797 ft 405 kts 301°
2026-05-04 10:19 31.28615 29.79261 39073 ft 404 kts 301°
2026-05-04 10:20 31.30277 29.76622 39282 ft 403 kts 301°
2026-05-04 10:20 31.31935 29.73977 39446 ft 404 kts 300°
2026-05-04 10:20 31.33593 29.71321 39636 ft 404 kts 300°
2026-05-04 10:20 31.35249 29.68661 39795 ft 405 kts 300°
2026-05-04 10:21 31.36904 29.65997 39973 ft 405 kts 300°
2026-05-04 10:21 31.38561 29.63328 40130 ft 405 kts 300°
2026-05-04 10:21 31.40216 29.60659 40307 ft 406 kts 300°
2026-05-04 10:21 31.41875 29.57984 40465 ft 406 kts 300°
2026-05-04 10:22 31.45192 29.52631 40811 ft 406 kts 301°
2026-05-04 10:22 31.46854 29.49946 40986 ft 407 kts 301°
2026-05-04 10:22 31.48510 29.47268 41094 ft 408 kts 301°
2026-05-04 10:23 31.50180 29.44565 41126 ft 410 kts 301°
2026-05-04 10:25 31.63516 29.22906 41119 ft 409 kts 301°
2026-05-04 10:25 31.66838 29.17479 41137 ft 409 kts 301°
2026-05-04 10:26 31.70158 29.12049 41141 ft 410 kts 301°
2026-05-04 10:26 31.73764 29.06836 41134 ft 417 kts 310°
2026-05-04 10:27 31.78142 29.02303 41133 ft 421 kts 313°
2026-05-04 10:27 31.82678 28.97931 41133 ft 422 kts 314°
2026-05-04 10:28 31.87234 28.93587 41133 ft 421 kts 314°
2026-05-04 10:28 31.91774 28.89230 41135 ft 421 kts 314°
2026-05-04 10:29 31.96300 28.84861 41135 ft 421 kts 314°
2026-05-04 10:29 32.00818 28.80485 41149 ft 421 kts 314°
2026-05-04 10:30 32.05308 28.76133 41140 ft 420 kts 314°
2026-05-04 10:30 32.09827 28.71747 41135 ft 421 kts 314°
2026-05-04 10:31 32.14371 28.67332 41136 ft 421 kts 314°
2026-05-04 10:32 32.30162 28.51944 41135 ft 420 kts 314°
2026-05-04 10:33 32.34671 28.47536 41147 ft 421 kts 314°
2026-05-04 10:33 32.39191 28.43110 41132 ft 422 kts 314°
2026-05-04 10:34 32.43712 28.38680 41136 ft 422 kts 314°
2026-05-04 10:34 32.48235 28.34240 41133 ft 422 kts 314°
2026-05-04 10:35 32.52754 28.29801 41137 ft 422 kts 314°
2026-05-04 10:35 32.57268 28.25358 41136 ft 422 kts 314°
2026-05-04 10:36 32.61754 28.20938 41136 ft 422 kts 314°
2026-05-04 10:36 32.66270 28.16482 41136 ft 422 kts 314°
2026-05-04 10:37 32.70780 28.12026 41131 ft 422 kts 314°
2026-05-04 10:37 32.75291 28.07562 41133 ft 422 kts 314°
2026-05-04 10:39 32.91056 27.91917 41136 ft 422 kts 314°
2026-05-04 10:40 32.95557 27.87435 41147 ft 422 kts 315°
2026-05-04 10:40 33.00053 27.82953 41135 ft 421 kts 314°
2026-05-04 10:41 33.04541 27.78474 41134 ft 421 kts 314°
2026-05-04 10:41 33.09023 27.73993 41132 ft 421 kts 314°
2026-05-04 10:42 33.13503 27.69508 41137 ft 421 kts 314°
2026-05-04 10:42 33.17985 27.65015 41138 ft 421 kts 314°
2026-05-04 10:43 33.22467 27.60516 41134 ft 421 kts 314°
2026-05-04 10:45 33.40349 27.42502 41137 ft 421 kts 315°
2026-05-04 10:45 33.44070 27.38742 41138 ft 421 kts 315°
2026-05-04 10:46 33.48539 27.34220 41139 ft 421 kts 315°
2026-05-04 10:46 33.53015 27.29685 41137 ft 421 kts 315°
2026-05-04 10:47 33.57485 27.25148 41136 ft 421 kts 315°
2026-05-04 10:47 33.61960 27.20600 41136 ft 422 kts 315°
2026-05-04 10:49 33.79874 27.02331 41141 ft 422 kts 315°
2026-05-04 10:50 33.84349 26.97752 41143 ft 422 kts 315°
2026-05-04 10:52 34.02307 26.79457 41139 ft 425 kts 317°
2026-05-04 10:52 34.06997 26.75110 41139 ft 425 kts 318°
2026-05-04 10:54 34.25791 26.57708 41143 ft 427 kts 318°
2026-05-04 10:56 34.44556 26.40144 41140 ft 426 kts 319°
2026-05-04 10:57 34.49236 26.35748 41173 ft 426 kts 319°
2026-05-04 10:57 34.53924 26.31337 41146 ft 427 kts 319°
2026-05-04 10:58 34.58618 26.26915 41143 ft 427 kts 319°
2026-05-04 10:58 34.63311 26.22489 41145 ft 426 kts 319°
2026-05-04 10:59 34.67983 26.18074 41143 ft 425 kts 319°
2026-05-04 10:59 34.72653 26.13655 41143 ft 425 kts 319°
2026-05-04 11:00 34.77321 26.09231 41146 ft 425 kts 319°
2026-05-04 11:02 34.96037 25.91430 41148 ft 426 kts 319°